Location: Delta State University
(33.7460°N, 90.7320°W)
Time: 03:01:47
(UTC-05:00)

Iridium 13 - Visible Passes

Search period start: 29 August 2014 00:00
Search period end: 08 September 2014 00:00
Orbit: 776 x 779 km, 86.4° (Epoch: 27 August)

Date Brightness Start Highest point End Pass type
(mag) Time Alt. Az. Time Alt. Az. Time Alt. Az.
29 Aug 8.2 05:30:04 10° SE 05:33:59 22° E 05:37:53 10° NNE visible
30 Aug 8.9 04:59:29 10° E 05:00:47 11° ENE 05:02:05 10° ENE visible
31 Aug 6.1 06:02:11 10° S 06:07:19 64° E 06:12:28 10° N visible
01 Sep 7.5 05:29:22 10° SSE 05:33:56 32° E 05:38:31 10° NNE visible
02 Sep 8.4 04:57:26 10° ESE 05:00:40 17° E 05:03:55 10° NE visible
03 Sep 5.5 06:02:11 10° S 06:07:23 85° W 06:12:37 10° N visible
04 Sep 6.6 05:28:58 10° SSE 05:33:56 48° E 05:38:56 10° NNE visible
05 Sep 7.8 04:56:25 10° SE 05:00:36 25° E 05:04:47 10° NNE visible
06 Sep 8.5 04:25:10 10° ESE 04:27:23 13° E 04:29:36 10° NE visible
06 Sep 5.6 06:02:24 10° SSW 06:07:29 57° W 06:12:37 10° N visible
07 Sep 5.8 05:28:48 10° S 05:33:58 74° E 05:39:10 10° N visible
